User: anonymous   Login
Location: Unspecified
(0.0000°N, 0.0000°E)
Time: 09:59:29
(UTC+00:00)
Language:

ONEWEB-0626 - Orbit

View from above orbital plane
View from above orbital plane
View from above satellite
View from above satellite

Ground track
Ground track

The orbit is defined by the following mean orbital elements,

1 55167U          26145.59672487 +.00000000 +00000-0 +12630-4 0 00009
2 55167  87.9150  10.3669 0001391  91.4339 268.6951 13.17650195    09
Epoch (UTC): 25 May 2026 14:19:17
Eccentricity: 0.0001391
inclination: 87.9150°
perigee height: 1193 km
apogee height: 1195 km
right ascension of ascending node: 10.3669°
argument of perigee: 91.4339°
revolutions per day: 13.17650195
mean anomaly at epoch: 268.6951°

The dashed part of the orbit path shows where the satellite is in the earth's shadow,  

DLR